Location: Unnamed
(51.5169°N, 0.1311°W)
Time: 19:21:48
(UTC+01:00)

Tiros 1 - Pass Details

Date: 14 August 2024
Orbit: 623 x 655 km, 48.4° (Epoch: 16 September)

Event Time Altitude Azimuth Distance (km) Brightness Sun altitude
Rises 04:19:36 0° 202° (SSW) 2,959 - -11.9°
Exits shadow 04:22:07 - 187° (S) 2,179 9.4 -11.6°
Reaches altitude 10° 04:22:36 10° 183° (S) 2,056 9.3 -11.6°
Maximum altitude 04:25:42 18° 142° (SE) 1,621 9.2 -11.2°
Drops below altitude 10° 04:28:49 10° 101° (E) 2,067 10.3 -10.8°
Sets 04:31:50 0° 82° (E) 2,982 11.7 -10.5°
